Regional Weather Roundup
Issued by NWS Sterling, VA

Home | Current Version | Previous Version | Text Only | Print | Product List | Glossary Off
Versions: 1 2 3 4 5 6 7 8 9 10 11 12 13 14 15 16 17 18 19 20 21 22 23 24 25 26 27 28 29 30 31 32 33 34 35 36 37 38 39 40 41 42 43 44 45 46 47 48 49 50

463
ASUS41 KLWX 250711
RWRLWX

REGIONAL WEATHER ROUNDUP
NATIONAL WEATHER SERVICE BALTIMORE MD/WASHINGTON DC
300 AM EDT SUN JUN 25 2017

Note: "FAIR" indicates few or no clouds below 12,000 feet
with no significant weather and/or obstructions to visibility.
 TC=TEMPERATURE CELSIUS

 * =Non NWS site. Station does not report precipitation (e.g. rain,
    snow, etc.), thunder, or fog.

DCZ001-MDZ009-015-VAZ040>042-051-053>054-250800-
WASHINGTON METRO

CITY           SKY/WX    TMP DP  RH WIND       PRES   REMARKS
WASHINGTON NAT PTCLDY    77  58  51 NW8       29.97S
DULLES         PTCLDY    65  59  81 CALM      29.98F
ANDREWS AFB    CLEAR     73  59  61 W6        29.96S
FT BELVOIR     CLEAR     64  61  91 CALM      29.97S
QUANTICO       MOCLDY    71  66  84 NW7       29.98S
COLLEGE PARK*  CLEAR     66  61  83 CALM      29.96S
LEESBURG*      CLOUDY   N/A N/A N/A NW7       30.00S
MANASSAS*      MOCLDY    64  63  96 CALM      29.99S
GAITHERSBURG*  CLOUDY    64  61  90 CALM      29.99F

$$

MDZ006>007-011-014-250800-
BALTIMORE METRO

CITY           SKY/WX    TMP DP  RH WIND       PRES   REMARKS
BWI AIRPORT    PTCLDY    68  61  78 W6        29.95F
MD SCIENCE CTR   N/A     78  59  51 MISG      29.95S
MARTIN STATE   CLEAR     70  61  73 NW3       29.96S
ANNAPOLIS      CLEAR     73  63  70 W5        29.95R
FORT MEADE*    CLEAR     63  61  94 CALM      29.98F

$$

MDZ012-015-019>023-250800-
MARYLAND EASTERN SHORE

CITY           SKY/WX    TMP DP  RH WIND       PRES   REMARKS
OCEAN CITY     CLEAR     68  67  96 NW3       29.94F
SALISBURY      CLEAR     67  66  97 CALM      29.95S
BAY BRIDGE AP* CLEAR     77  63  61 NW7       29.95S
CAMBRIDGE*     CLEAR     64  64 100 CALM      29.95S
EASTON*        CLEAR     69  64  84 CALM      29.99S

$$

MDZ017>025-250800-
SOUTHERN MARYLAND

CITY           SKY/WX    TMP DP  RH WIND       PRES   REMARKS
PATUXENT RIVER PTCLDY    67  64  90 W3        29.95S
ST INIGOES     CLEAR     68  66  93 CALM      29.95S
LEONARDTOWN*   CLEAR     64  61  88 W3        29.98S

$$

MDZ003>005-250800-
NORTH CENTRAL MARYLAND

CITY           SKY/WX    TMP DP  RH WIND       PRES   REMARKS
FREDERICK*     CLOUDY    68  64  88 CALM      30.01S
HAGERSTOWN APT CLEAR     71  59  65 W5        30.00S
WESTMINSTER*   MOCLDY    72  61  68 W5        30.00R

$$

MDZ501>502-250800-
WESTERN MARYLAND

CITY           SKY/WX    TMP DP  RH WIND       PRES   REMARKS
OAKLAND*       NOT AVBL
CUMBERLAND*    CLEAR     63  63 100 CALM      30.06F

$$

VAZ025>031-250800-
SHENANDOAH VALLEY

CITY           SKY/WX    TMP DP  RH WIND       PRES   REMARKS
WINCHESTER*    MOCLDY    64  57  77 CALM      30.01S
FRONT ROYAL*   MOCLDY    66  57  72 S5        30.01S
LURAY*         CLOUDY    63  61  94 CALM      30.04S
NEW MARKET*    CLOUDY    61  59  91 CALM      30.03F
STAUNTON*      CLEAR     58  56  94 CALM      30.07F
WAYNESBORO*    CLEAR     61  57  88 CALM      30.07S

$$

WVZ021-048>050-054>055-250800-
EASTERN WEST VIRGINIA PANHANDLE

CITY           SKY/WX    TMP DP  RH WIND       PRES   REMARKS
MARTINSBURG    PTCLDY    63  58  83 SW7       30.00S
PETERSBURG*    CLEAR     61  60  96 CALM      30.05S

$$

VAZ036>039-050-250800-
CENTRAL FOOTHILLS

CITY           SKY/WX    TMP DP  RH WIND       PRES   REMARKS
CHARLOTTESVILL CLEAR     67  62  84 CALM      30.00S
CULPEPER*      PTCLDY    64  62  96 CALM      30.00S
ORANGE*        PTCLDY    63  61  94 CALM      30.00S
GORDONSVILLE*  CLEAR     64  62  93 CALM      30.00S
WARRENTON*     PTCLDY    63  60  89 CALM      29.99R

$$

VAZ055>057-250800-
NORTH AND CENTRAL PIEDMONT

CITY           SKY/WX    TMP DP  RH WIND       PRES   REMARKS
FREDERICKSBRG* MOCLDY    71  65  81 CALM      29.97S
STAFFORD*      MOCLDY    65  65 100 NW3       30.02S

$$

NCZ024-NYZ072-PAZ021-071-VAZ022-071-250800-
OTHER REGIONAL OBSERVATIONS

CITY           SKY/WX    TMP DP  RH WIND       PRES   REMARKS
NEW YORK CITY  CLOUDY    73  59  61 CALM      29.95R
PHILADELPHIA   CLEAR     74  59  59 NW5       29.94R
PITTSBURGH     PTCLDY    62  57  83 W6        30.02S
ROANOKE        CLEAR     65  58  78 NW5       30.08S
RICHMOND       PTCLDY    74  71  91 SW7       29.97F
RALEIGH        MOCLDY    71  70  96 CALM      30.02F

$$

ANZ530>537-250800-
MARINE OBSERVATIONS

STATION/POSITION TIME  TEMP    WIND        PRES
                       AIR SEA DIR/SP/G
                 (UTC) (F)     (DEG/KT/KT) (MB)
THOMAS PT LIGHT  0700   75 78  280/  8/ 10   N/A
BALT KEY BRIDGE  0648          270/  9/ 10 1013.9F
COVE POINT       0648          310/  6/  9 1014.9R
LEWISETTA        0648      79  300/  2/  2 1014.3R
SOLOMONS ISLAND  0636      76  320/  4/  4   N/A
PINEY POINT      0648          320/  4/  4   N/A

$$





USA.gov is the U.S. government's official web portal to all federal, state and local government web resources and services.